Time,TemperatureF,DewpointF,PressureIn,WindDirection,WindDirectionDegrees,WindSpeedMPH,WindSpeedGustMPH,Humidity,HourlyPrecipIn,Conditions,Clouds,dailyrainin,SoftwareType,DateUTC
2013-08-29 00:01:00,79.9,75.3,29.90,WSW,245,8.0,15.0,86,0.00,,,0.00,WUHU216DAVISVP2,2013-08-29 04:01:00,
2013-08-29 00:02:00,79.9,75.3,29.90,WSW,244,6.0,20.0,86,0.00,,,0.00,WUHU216DAVISVP2,2013-08-29 04:02:00,
2013-08-29 00:07:00,79.9,75.3,29.90,West,276,7.0,20.0,86,0.00,,,0.00,WUHU216DAVISVP2,2013-08-29 04:07:00,
2013-08-29 00:12:00,79.8,75.2,29.90,WSW,258,18.0,21.0,86,0.00,,,0.00,WUHU216DAVISVP2,2013-08-29 04:12:00,
2013-08-29 00:17:00,79.8,75.2,29.89,West,259,11.0,21.0,86,0.00,,,0.00,WUHU216DAVISVP2,2013-08-29 04:17:00,
2013-08-29 00:22:00,79.8,75.6,29.89,West,269,13.0,21.0,87,0.00,,,0.00,WUHU216DAVISVP2,2013-08-29 04:22:00,
2013-08-29 00:27:00,79.8,75.6,29.90,West,259,10.0,21.0,87,0.00,,,0.00,WUHU216DAVISVP2,2013-08-29 04:27:00,
2013-08-29 00:32:00,79.8,75.6,29.90,West,266,15.0,20.0,87,0.00,,,0.00,WUHU216DAVISVP2,2013-08-29 04:32:00,
2013-08-29 00:37:00,79.7,75.5,29.90,West,269,13.0,20.0,87,0.00,,,0.00,WUHU216DAVISVP2,2013-08-29 04:37:00,
2013-08-29 00:42:00,79.7,75.5,29.90,WSW,243,12.0,20.0,87,0.00,,,0.00,WUHU216DAVISVP2,2013-08-29 04:42:00,
2013-08-29 00:47:00,79.7,75.5,29.90,WSW,246,11.0,20.0,87,0.00,,,0.00,WUHU216DAVISVP2,2013-08-29 04:47:00,
2013-08-29 00:52:00,79.7,75.5,29.90,WSW,250,12.0,18.0,87,0.00,,,0.00,WUHU216DAVISVP2,2013-08-29 04:52:00,
2013-08-29 00:57:00,79.7,75.5,29.89,WSW,244,12.0,17.0,87,0.00,,,0.00,WUHU216DAVISVP2,2013-08-29 04:57:00,
2013-08-29 01:02:00,79.6,75.4,29.89,WNW,282,9.0,16.0,87,0.00,,,0.00,WUHU216DAVISVP2,2013-08-29 05:02:00,
2013-08-29 01:07:00,79.6,75.4,29.89,WSW,254,8.0,18.0,87,0.00,,,0.00,WUHU216DAVISVP2,2013-08-29 05:07:00,
2013-08-29 01:11:00,79.6,75.4,29.88,West,263,12.0,18.0,87,0.00,,,0.00,WUHU216DAVISVP2,2013-08-29 05:11:00,
2013-08-29 01:17:00,79.5,75.3,29.88,WSW,238,8.0,19.0,87,0.00,,,0.00,WUHU216DAVISVP2,2013-08-29 05:17:00,
2013-08-29 01:22:00,79.6,75.7,29.88,WSW,237,12.0,22.0,88,0.00,,,0.00,WUHU216DAVISVP2,2013-08-29 05:22:00,
2013-08-29 01:27:00,79.5,75.6,29.89,West,271,12.0,22.0,88,0.00,,,0.00,WUHU216DAVISVP2,2013-08-29 05:27:00,
2013-08-29 01:32:00,79.4,75.5,29.88,WSW,253,12.0,22.0,88,0.00,,,0.00,WUHU216DAVISVP2,2013-08-29 05:32:00,
2013-08-29 01:37:00,79.4,75.5,29.88,WSW,248,14.0,18.0,88,0.00,,,0.00,WUHU216DAVISVP2,2013-08-29 05:37:00,
2013-08-29 01:42:00,79.3,75.5,29.88,SW,235,15.0,19.0,88,0.00,,,0.00,WUHU216DAVISVP2,2013-08-29 05:42:00,
2013-08-29 01:47:00,79.3,75.5,29.87,WSW,252,11.0,20.0,88,0.00,,,0.00,WUHU216DAVISVP2,2013-08-29 05:47:00,
2013-08-29 01:52:00,79.2,75.0,29.87,WSW,245,13.0,20.0,87,0.00,,,0.00,WUHU216DAVISVP2,2013-08-29 05:52:00,
2013-08-29 01:57:00,79.2,75.0,29.87,WSW,255,9.0,20.0,87,0.00,,,0.00,WUHU216DAVISVP2,2013-08-29 05:57:00,
2013-08-29 02:02:00,79.2,75.0,29.87,West,266,15.0,22.0,87,0.00,,,0.00,WUHU216DAVISVP2,2013-08-29 06:02:00,
2013-08-29 02:07:00,79.2,75.0,29.87,West,259,12.0,22.0,87,0.00,,,0.00,WUHU216DAVISVP2,2013-08-29 06:07:00,
2013-08-29 02:12:00,79.2,74.7,29.87,West,275,13.0,22.0,86,0.00,,,0.00,WUHU216DAVISVP2,2013-08-29 06:12:00,
2013-08-29 02:17:00,79.2,74.6,29.87,West,267,8.0,22.0,86,0.00,,,0.00,WUHU216DAVISVP2,2013-08-29 06:17:00,
2013-08-29 02:22:00,79.2,74.6,29.87,WSW,254,11.0,22.0,86,0.00,,,0.00,WUHU216DAVISVP2,2013-08-29 06:22:00,
2013-08-29 02:27:00,79.1,74.5,29.87,West,261,16.0,20.0,86,0.00,,,0.00,WUHU216DAVISVP2,2013-08-29 06:27:00,
2013-08-29 02:32:00,79.1,74.6,29.87,West,266,11.0,20.0,86,0.00,,,0.00,WUHU216DAVISVP2,2013-08-29 06:32:00,
2013-08-29 02:37:00,79.1,74.6,29.87,West,269,8.0,20.0,86,0.00,,,0.00,WUHU216DAVISVP2,2013-08-29 06:37:00,
2013-08-29 02:42:00,79.0,74.5,29.88,West,263,15.0,20.0,86,0.00,,,0.00,WUHU216DAVISVP2,2013-08-29 06:42:00,
2013-08-29 02:47:00,78.9,74.1,29.88,West,276,8.0,19.0,85,0.00,,,0.00,WUHU216DAVISVP2,2013-08-29 06:47:00,
2013-08-29 02:52:00,78.9,74.1,29.88,West,274,8.0,19.0,85,0.00,,,0.00,WUHU216DAVISVP2,2013-08-29 06:52:00,
2013-08-29 02:57:00,78.9,74.1,29.87,WSW,250,9.0,19.0,85,0.00,,,0.00,WUHU216DAVISVP2,2013-08-29 06:57:00,
2013-08-29 03:02:00,78.8,74.0,29.87,West,261,16.0,18.0,85,0.00,,,0.00,WUHU216DAVISVP2,2013-08-29 07:02:00,
2013-08-29 03:06:00,78.8,74.0,29.87,WSW,254,9.0,18.0,85,0.00,,,0.00,WUHU216DAVISVP2,2013-08-29 07:06:00,
2013-08-29 03:11:00,78.8,74.0,29.87,WSW,248,8.0,18.0,85,0.00,,,0.00,WUHU216DAVISVP2,2013-08-29 07:11:00,
2013-08-29 03:16:00,78.7,73.9,29.87,West,270,12.0,18.0,85,0.00,,,0.00,WUHU216DAVISVP2,2013-08-29 07:16:00,
2013-08-29 03:21:00,78.8,74.0,29.87,WSW,255,9.0,18.0,85,0.00,,,0.00,WUHU216DAVISVP2,2013-08-29 07:21:00,
2013-08-29 03:26:00,78.7,73.9,29.87,WSW,248,7.0,18.0,85,0.00,,,0.00,WUHU216DAVISVP2,2013-08-29 07:26:00,
2013-08-29 03:31:00,78.7,73.9,29.87,West,263,10.0,18.0,85,0.00,,,0.00,WUHU216DAVISVP2,2013-08-29 07:31:00,
2013-08-29 03:36:00,78.6,73.8,29.87,West,270,11.0,16.0,85,0.00,,,0.00,WUHU216DAVISVP2,2013-08-29 07:36:00,
2013-08-29 03:41:00,78.6,73.8,29.87,West,262,12.0,16.0,85,0.00,,,0.00,WUHU216DAVISVP2,2013-08-29 07:41:00,
2013-08-29 03:46:00,78.6,73.8,29.86,WSW,256,14.0,17.0,85,0.00,,,0.00,WUHU216DAVISVP2,2013-08-29 07:46:00,
2013-08-29 03:51:00,78.6,73.4,29.86,WSW,252,10.0,17.0,84,0.00,,,0.00,WUHU216DAVISVP2,2013-08-29 07:51:00,
2013-08-29 03:56:00,78.6,73.4,29.86,WSW,251,10.0,17.0,84,0.00,,,0.00,WUHU216DAVISVP2,2013-08-29 07:56:00,
2013-08-29 04:01:00,78.6,73.4,29.86,West,269,12.0,17.0,84,0.00,,,0.00,WUHU216DAVISVP2,2013-08-29 08:01:00,
2013-08-29 04:06:00,78.6,73.4,29.86,West,263,8.0,15.0,84,0.00,,,0.00,WUHU216DAVISVP2,2013-08-29 08:06:00,
2013-08-29 04:11:00,78.5,73.3,29.86,WSW,250,15.0,17.0,84,0.00,,,0.00,WUHU216DAVISVP2,2013-08-29 08:11:00,
2013-08-29 04:16:00,78.5,73.3,29.86,WNW,283,12.0,17.0,84,0.00,,,0.00,WUHU216DAVISVP2,2013-08-29 08:16:00,
2013-08-29 04:21:00,78.5,73.3,29.85,West,260,6.0,17.0,84,0.00,,,0.00,WUHU216DAVISVP2,2013-08-29 08:21:00,
2013-08-29 04:26:00,78.5,73.0,29.85,West,268,13.0,17.0,83,0.00,,,0.00,WUHU216DAVISVP2,2013-08-29 08:26:00,
2013-08-29 04:31:00,78.5,73.0,29.85,West,264,13.0,16.0,83,0.00,,,0.00,WUHU216DAVISVP2,2013-08-29 08:31:00,
2013-08-29 04:36:00,78.5,73.0,29.85,WSW,240,11.0,16.0,83,0.00,,,0.00,WUHU216DAVISVP2,2013-08-29 08:36:00,
2013-08-29 04:41:00,78.5,72.5,29.86,West,262,13.0,17.0,82,0.00,,,0.00,WUHU216DAVISVP2,2013-08-29 08:41:00,
2013-08-29 04:46:00,78.5,72.5,29.85,WSW,255,5.0,17.0,82,0.00,,,0.00,WUHU216DAVISVP2,2013-08-29 08:46:00,
2013-08-29 04:51:00,78.5,72.5,29.86,West,267,14.0,17.0,82,0.00,,,0.00,WUHU216DAVISVP2,2013-08-29 08:51:00,
2013-08-29 04:56:00,78.5,72.6,29.85,West,269,12.0,17.0,82,0.00,,,0.00,WUHU216DAVISVP2,2013-08-29 08:56:00,
2013-08-29 05:01:00,78.5,72.6,29.86,West,281,11.0,17.0,82,0.00,,,0.00,WUHU216DAVISVP2,2013-08-29 09:01:00,
2013-08-29 05:06:00,78.4,72.5,29.86,WSW,254,15.0,18.0,82,0.00,,,0.00,WUHU216DAVISVP2,2013-08-29 09:06:00,
2013-08-29 05:11:00,78.5,72.6,29.85,West,271,7.0,18.0,82,0.00,,,0.00,WUHU216DAVISVP2,2013-08-29 09:11:00,
2013-08-29 05:16:00,78.5,72.6,29.86,West,270,11.0,18.0,82,0.00,,,0.00,WUHU216DAVISVP2,2013-08-29 09:16:00,
2013-08-29 05:21:00,78.4,72.5,29.86,WNW,297,9.0,18.0,82,0.00,,,0.00,WUHU216DAVISVP2,2013-08-29 09:21:00,
2013-08-29 05:26:00,78.4,72.5,29.86,WSW,254,15.0,18.0,82,0.00,,,0.00,WUHU216DAVISVP2,2013-08-29 09:26:00,
2013-08-29 05:31:00,78.4,72.5,29.86,West,278,5.0,18.0,82,0.00,,,0.00,WUHU216DAVISVP2,2013-08-29 09:31:00,
2013-08-29 05:36:00,78.4,72.5,29.86,West,264,7.0,18.0,82,0.00,,,0.00,WUHU216DAVISVP2,2013-08-29 09:36:00,
2013-08-29 05:41:00,78.3,72.4,29.86,West,264,9.0,18.0,82,0.00,,,0.00,WUHU216DAVISVP2,2013-08-29 09:41:00,
2013-08-29 05:46:00,78.3,72.4,29.86,WNW,299,10.0,16.0,82,0.00,,,0.00,WUHU216DAVISVP2,2013-08-29 09:46:00,
2013-08-29 05:51:00,78.3,72.1,29.86,West,274,11.0,17.0,81,0.00,,,0.00,WUHU216DAVISVP2,2013-08-29 09:51:00,
2013-08-29 05:56:00,78.3,72.1,29.86,WSW,240,9.0,17.0,81,0.00,,,0.00,WUHU216DAVISVP2,2013-08-29 09:56:00,
2013-08-29 06:01:00,78.3,72.1,29.86,WSW,253,7.0,17.0,81,0.00,,,0.00,WUHU216DAVISVP2,2013-08-29 10:01:00,
2013-08-29 06:06:00,78.2,72.3,29.86,West,274,10.0,17.0,82,0.00,,,0.00,WUHU216DAVISVP2,2013-08-29 10:06:00,
2013-08-29 06:11:00,78.2,72.0,29.86,West,265,11.0,15.0,81,0.00,,,0.00,WUHU216DAVISVP2,2013-08-29 10:11:00,
2013-08-29 06:16:00,78.2,72.0,29.86,WSW,257,12.0,15.0,81,0.00,,,0.00,WUHU216DAVISVP2,2013-08-29 10:16:00,
2013-08-29 06:21:00,78.2,72.0,29.86,WSW,253,9.0,15.0,81,0.00,,,0.00,WUHU216DAVISVP2,2013-08-29 10:21:00,
2013-08-29 06:26:00,78.1,71.9,29.87,West,268,9.0,17.0,81,0.00,,,0.00,WUHU216DAVISVP2,2013-08-29 10:26:00,
2013-08-29 06:31:00,78.1,71.9,29.86,WSW,257,9.0,17.0,81,0.00,,,0.00,WUHU216DAVISVP2,2013-08-29 10:31:00,
2013-08-29 06:36:00,78.1,71.9,29.86,WSW,238,7.0,17.0,81,0.00,,,0.00,WUHU216DAVISVP2,2013-08-29 10:36:00,
2013-08-29 06:41:00,78.0,71.4,29.87,WSW,257,7.0,17.0,80,0.00,,,0.00,WUHU216DAVISVP2,2013-08-29 10:41:00,
2013-08-29 06:46:00,78.0,71.4,29.87,WSW,252,7.0,16.0,80,0.00,,,0.00,WUHU216DAVISVP2,2013-08-29 10:46:00,
2013-08-29 06:51:00,78.0,71.1,29.87,West,260,10.0,16.0,79,0.00,,,0.00,WUHU216DAVISVP2,2013-08-29 10:51:00,
2013-08-29 06:56:00,77.9,70.5,29.87,WSW,257,10.0,16.0,78,0.00,,,0.00,WUHU216DAVISVP2,2013-08-29 10:56:00,
2013-08-29 07:01:00,77.9,70.5,29.87,WSW,257,10.0,15.0,78,0.00,,,0.00,WUHU216DAVISVP2,2013-08-29 11:01:00,
2013-08-29 07:06:00,77.8,70.4,29.87,West,271,12.0,15.0,78,0.00,,,0.00,WUHU216DAVISVP2,2013-08-29 11:06:00,
2013-08-29 07:11:00,77.8,70.4,29.88,WSW,257,9.0,15.0,78,0.00,,,0.00,WUHU216DAVISVP2,2013-08-29 11:11:00,
2013-08-29 07:16:00,77.8,70.4,29.88,WSW,252,7.0,15.0,78,0.00,,,0.00,WUHU216DAVISVP2,2013-08-29 11:16:00,
2013-08-29 07:21:00,77.8,70.0,29.88,WSW,254,11.0,15.0,77,0.00,,,0.00,WUHU216DAVISVP2,2013-08-29 11:21:00,
2013-08-29 07:26:00,77.9,70.1,29.88,WSW,246,6.0,15.0,77,0.00,,,0.00,WUHU216DAVISVP2,2013-08-29 11:26:00,
2013-08-29 07:31:00,77.9,70.3,29.88,WSW,257,7.0,13.0,77,0.00,,,0.00,WUHU216DAVISVP2,2013-08-29 11:31:00,
2013-08-29 07:36:00,78.0,70.3,29.88,West,274,6.0,13.0,77,0.00,,,0.00,WUHU216DAVISVP2,2013-08-29 11:36:00,
2013-08-29 07:41:00,78.1,70.1,29.88,WSW,255,7.0,15.0,76,0.00,,,0.00,WUHU216DAVISVP2,2013-08-29 11:41:00,
2013-08-29 07:46:00,78.1,70.1,29.88,West,278,8.0,15.0,76,0.00,,,0.00,WUHU216DAVISVP2,2013-08-29 11:46:00,
2013-08-29 07:51:00,78.0,70.0,29.88,WSW,252,9.0,15.0,76,0.00,,,0.00,WUHU216DAVISVP2,2013-08-29 11:51:00,
2013-08-29 07:56:00,78.0,70.3,29.88,West,266,5.0,15.0,77,0.00,,,0.00,WUHU216DAVISVP2,2013-08-29 11:56:00,
2013-08-29 08:01:00,78.0,70.3,29.88,NW,306,5.0,14.0,77,0.00,,,0.00,WUHU216DAVISVP2,2013-08-29 12:01:00,
2013-08-29 08:06:00,77.9,70.3,29.88,West,269,10.0,14.0,77,0.00,,,0.00,WUHU216DAVISVP2,2013-08-29 12:06:00,
2013-08-29 08:11:00,78.0,70.3,29.88,WSW,254,7.0,14.0,77,0.00,,,0.00,WUHU216DAVISVP2,2013-08-29 12:11:00,
2013-08-29 08:16:00,78.0,70.3,29.88,West,273,7.0,13.0,77,0.00,,,0.00,WUHU216DAVISVP2,2013-08-29 12:16:00,
2013-08-29 08:21:00,77.9,70.3,29.88,West,264,8.0,13.0,77,0.00,,,0.00,WUHU216DAVISVP2,2013-08-29 12:21:00,
2013-08-29 08:26:00,78.0,70.7,29.88,West,278,7.0,14.0,78,0.00,,,0.00,WUHU216DAVISVP2,2013-08-29 12:26:00,
2013-08-29 08:31:00,78.0,70.7,29.88,West,275,10.0,14.0,78,0.00,,,0.00,WUHU216DAVISVP2,2013-08-29 12:31:00,
2013-08-29 08:36:00,78.0,70.7,29.88,West,259,8.0,14.0,78,0.00,,,0.00,WUHU216DAVISVP2,2013-08-29 12:36:00,
2013-08-29 08:41:00,78.1,70.8,29.88,West,270,10.0,14.0,78,0.00,,,0.00,WUHU216DAVISVP2,2013-08-29 12:41:00,
2013-08-29 08:46:00,78.1,70.7,29.88,WNW,288,11.0,14.0,78,0.00,,,0.00,WUHU216DAVISVP2,2013-08-29 12:46:00,
2013-08-29 08:51:00,78.2,70.8,29.88,WSW,252,9.0,14.0,78,0.00,,,0.00,WUHU216DAVISVP2,2013-08-29 12:51:00,
2013-08-29 08:56:00,78.2,71.3,29.88,WNW,285,5.0,14.0,79,0.00,,,0.00,WUHU216DAVISVP2,2013-08-29 12:56:00,
2013-08-29 09:01:00,78.3,71.0,29.88,West,273,8.0,14.0,78,0.00,,,0.00,WUHU216DAVISVP2,2013-08-29 13:01:00,
2013-08-29 09:06:00,78.5,71.2,29.88,WSW,252,6.0,14.0,78,0.00,,,0.00,WUHU216DAVISVP2,2013-08-29 13:06:00,
2013-08-29 09:11:00,78.7,71.4,29.88,WSW,255,6.0,14.0,78,0.00,,,0.00,WUHU216DAVISVP2,2013-08-29 13:11:00,
2013-08-29 09:16:00,79.2,71.9,29.88,West,276,10.0,16.0,78,0.00,,,0.00,WUHU216DAVISVP2,2013-08-29 13:16:00,
2013-08-29 09:21:00,80.0,71.9,29.89,West,265,9.0,16.0,76,0.00,,,0.00,WUHU216DAVISVP2,2013-08-29 13:21:00,
2013-08-29 09:26:00,80.5,72.4,29.88,WSW,250,8.0,16.0,76,0.00,,,0.00,WUHU216DAVISVP2,2013-08-29 13:26:00,
2013-08-29 09:31:00,80.8,71.9,29.88,West,262,10.0,16.0,74,0.00,,,0.00,WUHU216DAVISVP2,2013-08-29 13:31:00,
2013-08-29 09:36:00,81.0,72.1,29.88,West,270,6.0,16.0,74,0.00,,,0.00,WUHU216DAVISVP2,2013-08-29 13:36:00,
2013-08-29 09:41:00,81.1,71.8,29.89,West,272,12.0,17.0,73,0.00,,,0.00,WUHU216DAVISVP2,2013-08-29 13:41:00,
2013-08-29 09:46:00,81.2,72.3,29.88,WSW,245,10.0,17.0,74,0.00,,,0.00,WUHU216DAVISVP2,2013-08-29 13:46:00,
2013-08-29 09:51:00,81.3,71.8,29.88,West,259,11.0,17.0,73,0.00,,,0.00,WUHU216DAVISVP2,2013-08-29 13:51:00,
2013-08-29 09:56:00,81.4,72.3,29.88,West,267,7.0,17.0,74,0.00,,,0.00,WUHU216DAVISVP2,2013-08-29 13:56:00,
2013-08-29 10:01:00,81.7,72.6,29.88,West,271,16.0,17.0,74,0.00,,,0.00,WUHU216DAVISVP2,2013-08-29 14:01:00,
2013-08-29 10:07:00,81.9,72.6,29.88,West,271,8.0,21.0,73,0.00,,,0.00,WUHU216DAVISVP2,2013-08-29 14:07:00,
2013-08-29 10:12:00,82.2,72.5,29.88,West,269,6.0,21.0,72,0.00,,,0.00,WUHU216DAVISVP2,2013-08-29 14:12:00,
2013-08-29 10:17:00,82.4,72.3,29.88,West,280,12.0,21.0,71,0.00,,,0.00,WUHU216DAVISVP2,2013-08-29 14:17:00,
2013-08-29 10:22:00,82.1,72.4,29.88,WNW,295,10.0,21.0,72,0.00,,,0.00,WUHU216DAVISVP2,2013-08-29 14:22:00,
2013-08-29 10:27:00,82.2,72.9,29.88,West,272,11.0,18.0,73,0.00,,,0.00,WUHU216DAVISVP2,2013-08-29 14:27:00,
2013-08-29 10:32:00,82.5,73.2,29.88,West,267,12.0,18.0,73,0.00,,,0.00,WUHU216DAVISVP2,2013-08-29 14:32:00,
2013-08-29 10:37:00,82.8,73.5,29.88,WNW,282,10.0,18.0,73,0.00,,,0.00,WUHU216DAVISVP2,2013-08-29 14:37:00,
2013-08-29 10:42:00,82.9,73.6,29.88,WNW,302,9.0,18.0,73,0.00,,,0.00,WUHU216DAVISVP2,2013-08-29 14:42:00,
2013-08-29 10:46:00,83.2,73.9,29.88,WNW,293,6.0,18.0,73,0.00,,,0.00,WUHU216DAVISVP2,2013-08-29 14:46:00,
2013-08-29 10:51:00,83.7,74.1,29.88,WNW,298,8.0,18.0,73,0.00,,,0.00,WUHU216DAVISVP2,2013-08-29 14:51:00,
2013-08-29 10:57:00,83.9,73.7,29.88,West,272,10.0,14.0,71,0.00,,,0.00,WUHU216DAVISVP2,2013-08-29 14:57:00,
2013-08-29 11:02:00,84.6,74.4,29.88,WNW,293,6.0,14.0,71,0.00,,,0.00,WUHU216DAVISVP2,2013-08-29 15:02:00,
2013-08-29 11:07:00,84.9,74.3,29.87,WNW,286,10.0,14.0,70,0.00,,,0.00,WUHU216DAVISVP2,2013-08-29 15:07:00,
2013-08-29 11:12:00,84.9,73.8,29.87,WNW,286,5.0,15.0,69,0.00,,,0.00,WUHU216DAVISVP2,2013-08-29 15:12:00,
2013-08-29 11:17:00,85.1,73.8,29.87,WNW,285,5.0,15.0,69,0.00,,,0.00,WUHU216DAVISVP2,2013-08-29 15:17:00,
2013-08-29 11:22:00,85.4,74.3,29.87,WNW,297,5.0,15.0,69,0.00,,,0.00,WUHU216DAVISVP2,2013-08-29 15:22:00,
2013-08-29 11:26:00,85.8,74.7,29.87,WNW,295,5.0,14.0,69,0.00,,,0.00,WUHU216DAVISVP2,2013-08-29 15:26:00,
2013-08-29 11:31:00,85.8,74.3,29.87,West,272,9.0,14.0,68,0.00,,,0.00,WUHU216DAVISVP2,2013-08-29 15:31:00,
2013-08-29 11:37:00,86.0,74.9,29.87,West,271,5.0,13.0,69,0.00,,,0.00,WUHU216DAVISVP2,2013-08-29 15:37:00,
2013-08-29 11:41:00,86.3,74.5,29.87,WNW,295,8.0,13.0,68,0.00,,,0.00,WUHU216DAVISVP2,2013-08-29 15:41:00,
2013-08-29 11:46:00,86.6,74.6,29.87,NW,310,4.0,13.0,67,0.00,,,0.00,WUHU216DAVISVP2,2013-08-29 15:46:00,
2013-08-29 11:51:00,86.9,74.5,29.87,NW,317,12.0,13.0,66,0.00,,,0.00,WUHU216DAVISVP2,2013-08-29 15:51:00,
2013-08-29 11:56:00,86.6,74.6,29.87,WNW,291,7.0,13.0,67,0.00,,,0.00,WUHU216DAVISVP2,2013-08-29 15:56:00,
2013-08-29 12:01:00,86.6,74.6,29.87,WNW,301,6.0,13.0,67,0.00,,,0.00,WUHU216DAVISVP2,2013-08-29 16:01:00,
2013-08-29 12:06:00,86.6,73.9,29.87,NW,320,7.0,13.0,66,0.00,,,0.00,WUHU216DAVISVP2,2013-08-29 16:06:00,
2013-08-29 12:11:00,86.8,74.1,29.87,WNW,286,3.0,13.0,66,0.00,,,0.00,WUHU216DAVISVP2,2013-08-29 16:11:00,
2013-08-29 12:16:00,86.9,74.5,29.86,WNW,301,6.0,13.0,66,0.00,,,0.00,WUHU216DAVISVP2,2013-08-29 16:16:00,
2013-08-29 12:21:00,86.7,74.3,29.87,NW,316,6.0,14.0,66,0.00,,,0.00,WUHU216DAVISVP2,2013-08-29 16:21:00,
2013-08-29 12:27:00,86.7,74.7,29.86,NNW,330,4.0,14.0,67,0.00,,,0.00,WUHU216DAVISVP2,2013-08-29 16:27:00,
2013-08-29 12:31:00,86.9,74.5,29.86,WNW,297,3.0,14.0,66,0.00,,,0.00,WUHU216DAVISVP2,2013-08-29 16:31:00,
2013-08-29 12:36:00,87.1,74.6,29.86,WNW,297,7.0,14.0,66,0.00,,,0.00,WUHU216DAVISVP2,2013-08-29 16:36:00,
2013-08-29 12:41:00,86.9,74.2,29.86,NW,316,4.0,11.0,66,0.00,,,0.00,WUHU216DAVISVP2,2013-08-29 16:41:00,
2013-08-29 12:46:00,87.3,74.8,29.86,WNW,294,5.0,10.0,66,0.00,,,0.00,WUHU216DAVISVP2,2013-08-29 16:46:00,
2013-08-29 12:51:00,87.4,74.9,29.86,WNW,289,4.0,10.0,66,0.00,,,0.00,WUHU216DAVISVP2,2013-08-29 16:51:00,
2013-08-29 12:56:00,87.9,75.0,29.86,NNW,347,1.0,10.0,65,0.00,,,0.00,WUHU216DAVISVP2,2013-08-29 16:56:00,
2013-08-29 13:01:00,88.1,74.7,29.86,NW,307,6.0,8.0,64,0.00,,,0.00,WUHU216DAVISVP2,2013-08-29 17:01:00,
2013-08-29 13:06:00,87.7,74.8,29.86,West,271,2.0,10.0,65,0.00,,,0.00,WUHU216DAVISVP2,2013-08-29 17:06:00,
2013-08-29 13:11:00,88.7,75.0,29.86,WNW,283,4.0,10.0,64,0.00,,,0.00,WUHU216DAVISVP2,2013-08-29 17:11:00,
2013-08-29 13:16:00,88.3,74.9,29.85,West,271,4.0,10.0,64,0.00,,,0.00,WUHU216DAVISVP2,2013-08-29 17:16:00,
2013-08-29 13:21:00,88.5,74.1,29.86,WNW,283,2.0,10.0,62,0.00,,,0.00,WUHU216DAVISVP2,2013-08-29 17:21:00,
2013-08-29 13:26:00,88.1,75.1,29.85,NW,310,4.0,10.0,65,0.00,,,0.00,WUHU216DAVISVP2,2013-08-29 17:26:00,
2013-08-29 13:31:00,88.2,74.8,29.85,WSW,256,2.0,10.0,64,0.00,,,0.00,WUHU216DAVISVP2,2013-08-29 17:31:00,
2013-08-29 13:36:00,88.5,75.2,29.85,West,274,3.0,10.0,65,0.00,,,0.00,WUHU216DAVISVP2,2013-08-29 17:36:00,
2013-08-29 13:41:00,89.4,75.4,29.85,WNW,284,1.0,10.0,63,0.00,,,0.00,WUHU216DAVISVP2,2013-08-29 17:41:00,
2013-08-29 13:46:00,89.7,74.8,29.86,NE,56,1.0,8.0,61,0.00,,,0.00,WUHU216DAVISVP2,2013-08-29 17:46:00,
2013-08-29 13:51:00,88.5,76.9,29.85,ESE,117,9.0,9.0,68,0.00,,,0.00,WUHU216DAVISVP2,2013-08-29 17:51:00,
2013-08-29 13:56:00,86.8,76.3,29.85,SSE,150,9.0,11.0,71,0.00,,,0.00,WUHU216DAVISVP2,2013-08-29 17:56:00,
2013-08-29 14:01:00,85.7,76.3,29.85,ESE,116,9.0,14.0,73,0.00,,,0.00,WUHU216DAVISVP2,2013-08-29 18:01:00,
2013-08-29 14:06:00,85.4,76.8,29.85,ESE,123,6.0,14.0,75,0.00,,,0.00,WUHU216DAVISVP2,2013-08-29 18:06:00,
2013-08-29 14:11:00,85.3,77.1,29.85,East,89,7.0,14.0,76,0.00,,,0.00,WUHU216DAVISVP2,2013-08-29 18:11:00,
2013-08-29 14:16:00,84.9,76.7,29.85,East,86,5.0,13.0,76,0.00,,,0.00,WUHU216DAVISVP2,2013-08-29 18:16:00,
2013-08-29 14:21:00,84.9,77.1,29.85,East,89,5.0,9.0,77,0.00,,,0.00,WUHU216DAVISVP2,2013-08-29 18:21:00,
2013-08-29 14:26:00,85.2,77.2,29.85,ESE,114,3.0,9.0,77,0.00,,,0.00,WUHU216DAVISVP2,2013-08-29 18:26:00,
2013-08-29 14:31:00,85.7,77.5,29.85,SE,138,3.0,9.0,76,0.00,,,0.00,WUHU216DAVISVP2,2013-08-29 18:31:00,
2013-08-29 14:36:00,86.5,77.0,29.85,SSE,149,2.0,6.0,73,0.00,,,0.00,WUHU216DAVISVP2,2013-08-29 18:36:00,
2013-08-29 14:41:00,86.7,77.2,29.85,SE,141,7.0,7.0,73,0.00,,,0.00,WUHU216DAVISVP2,2013-08-29 18:41:00,
2013-08-29 14:46:00,86.5,77.0,29.85,SSE,147,6.0,9.0,73,0.00,,,0.00,WUHU216DAVISVP2,2013-08-29 18:46:00,
2013-08-29 14:51:00,86.4,76.9,29.84,SSE,152,7.0,10.0,73,0.00,,,0.00,WUHU216DAVISVP2,2013-08-29 18:51:00,
2013-08-29 14:56:00,86.0,77.4,29.84,SSE,148,8.0,10.0,75,0.00,,,0.00,WUHU216DAVISVP2,2013-08-29 18:56:00,
2013-08-29 15:01:00,86.1,76.7,29.84,SSE,165,7.0,11.0,73,0.00,,,0.00,WUHU216DAVISVP2,2013-08-29 19:01:00,
2013-08-29 15:06:00,86.8,77.3,29.84,SSE,148,9.0,11.0,73,0.00,,,0.00,WUHU216DAVISVP2,2013-08-29 19:06:00,
2013-08-29 15:11:00,87.1,77.2,29.84,SSE,148,7.0,11.0,72,0.00,,,0.00,WUHU216DAVISVP2,2013-08-29 19:11:00,
2013-08-29 15:16:00,87.2,77.1,29.83,South,174,9.0,10.0,72,0.00,,,0.00,WUHU216DAVISVP2,2013-08-29 19:16:00,
2013-08-29 15:21:00,87.4,77.1,29.83,SSE,150,11.0,11.0,71,0.00,,,0.00,WUHU216DAVISVP2,2013-08-29 19:21:00,
2013-08-29 15:26:00,87.6,77.3,29.84,WSW,251,11.0,13.0,71,0.00,,,0.00,WUHU216DAVISVP2,2013-08-29 19:26:00,
2013-08-29 15:31:00,87.5,77.6,29.83,SW,221,8.0,13.0,72,0.00,,,0.00,WUHU216DAVISVP2,2013-08-29 19:31:00,
2013-08-29 15:36:00,87.5,76.8,29.83,SSE,164,9.0,13.0,70,0.00,,,0.00,WUHU216DAVISVP2,2013-08-29 19:36:00,
2013-08-29 15:41:00,87.1,77.2,29.84,SE,145,6.0,13.0,72,0.00,,,0.00,WUHU216DAVISVP2,2013-08-29 19:41:00,
2013-08-29 15:46:00,86.5,76.8,29.84,ESE,112,4.0,11.0,73,0.00,,,0.00,WUHU216DAVISVP2,2013-08-29 19:46:00,
2013-08-29 15:55:00,82.8,74.5,29.87,NNE,28,9.0,14.0,76,6.78,,,0.12,Wunderground v.1.15,2013-08-29 19:55:00,
2013-08-29 16:00:00,78.5,72.9,29.85,NE,49,14.0,14.0,83,0.75,,,0.40,Wunderground v.1.15,2013-08-29 20:00:00,
2013-08-29 16:10:00,76.4,72.6,29.85,WSW,238,9.0,9.0,88,0.08,,,0.44,Wunderground v.1.15,2013-08-29 20:10:00,
2013-08-29 16:15:00,76.6,72.8,29.85,SSW,210,8.0,10.0,88,0.05,,,0.44,Wunderground v.1.15,2013-08-29 20:15:00,
2013-08-29 16:25:00,77.8,74.0,29.84,SSE,162,9.0,9.0,88,0.00,,,0.44,Wunderground v.1.15,2013-08-29 20:25:00,
2013-08-29 16:30:00,78.2,74.0,29.84,SW,226,7.0,7.0,87,0.00,,,0.44,Wunderground v.1.15,2013-08-29 20:30:00,
2013-08-29 16:35:00,78.6,74.1,29.84,WSW,255,5.0,7.0,86,0.00,,,0.44,Wunderground v.1.15,2013-08-29 20:35:00,
2013-08-29 16:40:00,79.3,75.1,29.84,West,276,4.0,4.0,87,0.00,,,0.44,Wunderground v.1.15,2013-08-29 20:40:00,
2013-08-29 16:50:00,80.1,75.2,29.84,West,278,3.0,4.0,85,0.00,,,0.44,Wunderground v.1.15,2013-08-29 20:50:00,
2013-08-29 16:55:00,80.5,75.6,29.84,WSW,255,4.0,5.0,85,0.00,,,0.44,Wunderground v.1.15,2013-08-29 20:55:00,
2013-08-29 17:00:00,80.2,74.9,29.84,West,267,6.0,6.0,84,0.00,,,0.44,Wunderground v.1.15,2013-08-29 21:00:00,
2013-08-29 17:10:00,79.8,74.9,29.84,WSW,256,6.0,6.0,85,0.00,,,0.44,Wunderground v.1.15,2013-08-29 21:10:00,
2013-08-29 17:15:00,79.9,74.6,29.84,WNW,283,6.0,6.0,84,0.00,,,0.44,Wunderground v.1.15,2013-08-29 21:15:00,
2013-08-29 17:25:00,79.7,74.5,29.84,West,264,7.0,9.0,84,0.00,,,0.44,WUHU216DAVISVP2,2013-08-29 21:25:00,
2013-08-29 17:30:00,79.7,74.2,29.84,West,276,4.0,12.0,83,0.00,,,0.44,WUHU216DAVISVP2,2013-08-29 21:30:00,
2013-08-29 17:35:00,79.5,74.2,29.84,WSW,252,4.0,12.0,84,0.00,,,0.44,WUHU216DAVISVP2,2013-08-29 21:35:00,
2013-08-29 17:40:00,79.4,74.2,29.84,WSW,254,7.0,12.0,84,0.00,,,0.44,WUHU216DAVISVP2,2013-08-29 21:40:00,
2013-08-29 17:45:00,79.4,74.2,29.85,WSW,250,8.0,11.0,84,0.00,,,0.44,WUHU216DAVISVP2,2013-08-29 21:45:00,
2013-08-29 17:50:00,79.5,74.6,29.85,SW,233,6.0,9.0,85,0.00,,,0.44,WUHU216DAVISVP2,2013-08-29 21:50:00,
2013-08-29 17:55:00,79.6,74.7,29.84,SW,221,5.0,9.0,85,0.00,,,0.44,WUHU216DAVISVP2,2013-08-29 21:55:00,
2013-08-29 18:00:00,79.6,74.7,29.84,WSW,258,6.0,9.0,85,0.00,,,0.44,WUHU216DAVISVP2,2013-08-29 22:00:00,
2013-08-29 18:05:00,79.7,74.8,29.85,WSW,241,6.0,9.0,85,0.00,,,0.44,WUHU216DAVISVP2,2013-08-29 22:05:00,
2013-08-29 18:10:00,79.8,75.3,29.86,NW,306,3.0,8.0,86,0.00,,,0.44,WUHU216DAVISVP2,2013-08-29 22:10:00,
2013-08-29 18:15:00,79.7,75.1,29.86,WNW,290,4.0,8.0,86,0.10,,,0.55,WUHU216DAVISVP2,2013-08-29 22:15:00,
2013-08-29 18:20:00,79.1,75.6,29.87,West,276,5.0,11.0,89,0.20,,,0.64,WUHU216DAVISVP2,2013-08-29 22:20:00,
2013-08-29 18:25:00,78.4,75.2,29.86,SSW,210,5.0,11.0,90,0.24,,,0.68,WUHU216DAVISVP2,2013-08-29 22:25:00,
2013-08-29 18:30:00,77.7,74.2,29.85,WSW,241,10.0,12.0,89,0.24,,,0.68,WUHU216DAVISVP2,2013-08-29 22:30:00,
2013-08-29 18:35:00,76.8,73.3,29.85,WNW,285,3.0,12.0,89,0.24,,,0.68,WUHU216DAVISVP2,2013-08-29 22:35:00,
2013-08-29 18:40:00,76.7,73.9,29.85,WNW,283,4.0,12.0,91,0.24,,,0.68,WUHU216DAVISVP2,2013-08-29 22:40:00,
2013-08-29 18:45:00,76.4,73.6,29.86,WNW,292,6.0,12.0,91,0.24,,,0.68,WUHU216DAVISVP2,2013-08-29 22:45:00,
2013-08-29 18:50:00,76.0,73.2,29.86,West,276,4.0,10.0,91,0.24,,,0.68,WUHU216DAVISVP2,2013-08-29 22:50:00,
2013-08-29 18:55:00,76.2,73.7,29.86,West,269,5.0,8.0,92,0.24,,,0.68,WUHU216DAVISVP2,2013-08-29 22:55:00,
2013-08-29 19:00:00,76.5,74.0,29.86,West,281,3.0,8.0,92,0.24,,,0.68,WUHU216DAVISVP2,2013-08-29 23:00:00,
2013-08-29 19:05:00,76.7,74.2,29.86,West,281,4.0,8.0,92,0.24,,,0.68,WUHU216DAVISVP2,2013-08-29 23:05:00,
2013-08-29 19:10:00,77.0,74.2,29.85,WNW,284,3.0,7.0,91,0.24,,,0.68,WUHU216DAVISVP2,2013-08-29 23:10:00,
2013-08-29 19:15:00,77.2,74.0,29.86,West,281,5.0,7.0,90,0.13,,,0.68,WUHU216DAVISVP2,2013-08-29 23:15:00,
2013-08-29 19:20:00,77.8,74.6,29.86,West,266,5.0,6.0,90,0.04,,,0.68,WUHU216DAVISVP2,2013-08-29 23:20:00,
2013-08-29 19:25:00,78.1,75.2,29.86,West,272,4.0,6.0,91,0.00,,,0.68,WUHU216DAVISVP2,2013-08-29 23:25:00,
2013-08-29 19:30:00,78.3,75.8,29.86,West,280,4.0,6.0,92,0.00,,,0.68,WUHU216DAVISVP2,2013-08-29 23:30:00,
2013-08-29 19:35:00,78.3,75.8,29.86,West,275,2.0,6.0,92,0.00,,,0.68,WUHU216DAVISVP2,2013-08-29 23:35:00,
2013-08-29 19:40:00,78.4,76.2,29.87,WNW,289,4.0,6.0,93,0.00,,,0.68,WUHU216DAVISVP2,2013-08-29 23:40:00,
2013-08-29 19:45:00,78.4,76.2,29.87,West,276,2.0,5.0,93,0.00,,,0.68,WUHU216DAVISVP2,2013-08-29 23:45:00,
2013-08-29 19:50:00,78.4,76.5,29.87,NNW,328,3.0,5.0,94,0.00,,,0.68,WUHU216DAVISVP2,2013-08-29 23:50:00,
2013-08-29 19:55:00,78.4,76.2,29.87,NNW,329,2.0,5.0,93,0.00,,,0.68,WUHU216DAVISVP2,2013-08-29 23:55:00,
2013-08-29 20:00:00,78.4,76.5,29.87,NW,323,2.0,5.0,94,0.00,,,0.68,WUHU216DAVISVP2,2013-08-30 00:00:00,
2013-08-29 20:05:00,78.5,76.6,29.87,NW,311,1.0,4.0,94,0.00,,,0.68,WUHU216DAVISVP2,2013-08-30 00:05:00,
2013-08-29 20:10:00,78.4,76.5,29.87,NW,307,1.0,4.0,94,0.00,,,0.68,WUHU216DAVISVP2,2013-08-30 00:10:00,
2013-08-29 20:15:00,78.3,76.4,29.87,NW,314,2.0,3.0,94,0.00,,,0.68,WUHU216DAVISVP2,2013-08-30 00:15:00,
2013-08-29 20:20:00,78.2,76.3,29.87,NW,325,3.0,3.0,94,0.00,,,0.68,WUHU216DAVISVP2,2013-08-30 00:20:00,
2013-08-29 20:25:00,78.1,75.9,29.87,NNW,330,1.0,4.0,93,0.00,,,0.68,WUHU216DAVISVP2,2013-08-30 00:25:00,
2013-08-29 20:30:00,78.0,75.8,29.87,NW,304,1.0,4.0,93,0.00,,,0.68,WUHU216DAVISVP2,2013-08-30 00:30:00,
2013-08-29 20:35:00,78.1,75.9,29.88,NW,321,3.0,4.0,93,0.00,,,0.68,WUHU216DAVISVP2,2013-08-30 00:35:00,
2013-08-29 20:40:00,78.0,75.8,29.88,NW,314,4.0,5.0,93,0.02,,,0.70,WUHU216DAVISVP2,2013-08-30 00:40:00,
2013-08-29 20:45:00,77.9,75.7,29.88,North,359,1.0,5.0,93,0.03,,,0.71,WUHU216DAVISVP2,2013-08-30 00:45:00,
2013-08-29 20:50:00,77.9,75.7,29.89,ENE,61,2.0,5.0,93,0.03,,,0.71,WUHU216DAVISVP2,2013-08-30 00:50:00,
2013-08-29 20:55:00,78.2,76.0,29.90,East,101,22.0,26.0,93,0.03,,,0.71,WUHU216DAVISVP2,2013-08-30 00:55:00,
2013-08-29 21:00:00,78.4,75.5,29.90,NE,51,21.0,26.0,91,0.03,,,0.71,WUHU216DAVISVP2,2013-08-30 01:00:00,
2013-08-29 21:05:00,77.4,74.6,29.91,East,80,22.0,31.0,91,0.03,,,0.71,WUHU216DAVISVP2,2013-08-30 01:05:00,
2013-08-29 21:10:00,76.8,74.9,29.91,East,95,20.0,31.0,94,0.04,,,0.72,WUHU216DAVISVP2,2013-08-30 01:10:00,
2013-08-29 21:15:00,77.1,75.2,29.91,NE,43,17.0,31.0,94,0.04,,,0.72,WUHU216DAVISVP2,2013-08-30 01:15:00,
2013-08-29 21:20:00,77.6,75.4,29.91,ENE,73,19.0,31.0,93,0.04,,,0.72,WUHU216DAVISVP2,2013-08-30 01:20:00,
2013-08-29 21:25:00,78.0,75.5,29.91,NNE,22,18.0,25.0,92,0.04,,,0.72,WUHU216DAVISVP2,2013-08-30 01:25:00,
2013-08-29 21:30:00,78.2,75.4,29.92,ENE,70,20.0,25.0,91,0.04,,,0.72,WUHU216DAVISVP2,2013-08-30 01:30:00,
2013-08-29 21:35:00,78.3,75.1,29.92,ENE,68,22.0,25.0,90,0.04,,,0.72,WUHU216DAVISVP2,2013-08-30 01:35:00,
2013-08-29 21:40:00,78.4,75.2,29.92,NNW,341,20.0,25.0,90,0.02,,,0.72,WUHU216DAVISVP2,2013-08-30 01:40:00,
2013-08-29 21:45:00,78.5,75.3,29.92,ENE,69,20.0,25.0,90,0.01,,,0.72,WUHU216DAVISVP2,2013-08-30 01:45:00,
2013-08-29 21:50:00,78.5,75.3,29.92,NNE,27,21.0,25.0,90,0.01,,,0.72,WUHU216DAVISVP2,2013-08-30 01:50:00,
2013-08-29 21:55:00,78.5,75.0,29.92,ENE,74,19.0,25.0,89,0.01,,,0.72,WUHU216DAVISVP2,2013-08-30 01:55:00,
2013-08-29 22:00:00,78.6,75.1,29.93,NE,51,17.0,25.0,89,0.01,,,0.72,WUHU216DAVISVP2,2013-08-30 02:00:00,
2013-08-29 22:05:00,78.6,75.4,29.93,ENE,61,19.0,24.0,90,0.01,,,0.72,WUHU216DAVISVP2,2013-08-30 02:05:00,
2013-08-29 22:10:00,78.6,75.1,29.93,NNE,30,18.0,23.0,89,0.00,,,0.72,WUHU216DAVISVP2,2013-08-30 02:10:00,
2013-08-29 22:15:00,78.7,75.5,29.93,NE,42,17.0,23.0,90,0.00,,,0.72,WUHU216DAVISVP2,2013-08-30 02:15:00,
2013-08-29 22:20:00,78.6,75.1,29.93,ENE,64,17.0,22.0,89,0.00,,,0.72,WUHU216DAVISVP2,2013-08-30 02:20:00,
2013-08-29 22:25:00,78.6,75.1,29.93,ENE,65,16.0,24.0,89,0.00,,,0.72,WUHU216DAVISVP2,2013-08-30 02:25:00,
2013-08-29 22:30:00,78.6,75.4,29.93,NE,53,21.0,24.0,90,0.00,,,0.72,WUHU216DAVISVP2,2013-08-30 02:30:00,
2013-08-29 22:35:00,78.3,74.5,29.93,ENE,60,22.0,24.0,88,0.00,,,0.72,WUHU216DAVISVP2,2013-08-30 02:35:00,
2013-08-29 22:40:00,78.2,73.7,29.93,ENE,58,25.0,26.0,86,0.00,,,0.72,WUHU216DAVISVP2,2013-08-30 02:40:00,
2013-08-29 22:45:00,78.4,73.6,29.93,ENE,58,17.0,26.0,85,0.00,,,0.72,WUHU216DAVISVP2,2013-08-30 02:45:00,
2013-08-29 22:50:00,78.5,74.0,29.93,ENE,57,19.0,26.0,86,0.00,,,0.72,WUHU216DAVISVP2,2013-08-30 02:50:00,
2013-08-29 22:55:00,78.4,73.5,29.93,ENE,58,16.0,26.0,85,0.00,,,0.72,WUHU216DAVISVP2,2013-08-30 02:55:00,
2013-08-29 23:00:00,78.4,73.6,29.93,NE,52,18.0,26.0,85,0.00,,,0.72,WUHU216DAVISVP2,2013-08-30 03:00:00,
2013-08-29 23:05:00,78.3,73.1,29.93,NE,41,20.0,29.0,84,0.00,,,0.72,WUHU216DAVISVP2,2013-08-30 03:05:00,
2013-08-29 23:10:00,78.3,73.5,29.93,NE,56,24.0,29.0,85,0.00,,,0.72,WUHU216DAVISVP2,2013-08-30 03:10:00,
2013-08-29 23:15:00,78.2,73.4,29.93,SE,126,22.0,29.0,85,0.00,,,0.72,WUHU216DAVISVP2,2013-08-30 03:15:00,
2013-08-29 23:20:00,78.2,73.3,29.93,ENE,71,24.0,29.0,85,0.00,,,0.72,WUHU216DAVISVP2,2013-08-30 03:20:00,
2013-08-29 23:25:00,78.2,73.7,29.93,ENE,72,24.0,26.0,86,0.00,,,0.72,WUHU216DAVISVP2,2013-08-30 03:25:00,
2013-08-29 23:30:00,78.0,73.2,29.93,NE,56,16.0,26.0,85,0.00,,,0.72,WUHU216DAVISVP2,2013-08-30 03:30:00,
2013-08-29 23:35:00,78.0,73.2,29.93,ENE,60,17.0,26.0,85,0.00,,,0.72,WUHU216DAVISVP2,2013-08-30 03:35:00,
2013-08-29 23:40:00,78.0,72.8,29.93,East,80,23.0,26.0,84,0.00,,,0.72,WUHU216DAVISVP2,2013-08-30 03:40:00,
2013-08-29 23:45:00,78.0,73.2,29.93,NE,44,20.0,26.0,85,0.00,,,0.72,WUHU216DAVISVP2,2013-08-30 03:45:00,
2013-08-29 23:50:00,78.0,73.5,29.93,East,97,21.0,26.0,86,0.00,,,0.72,WUHU216DAVISVP2,2013-08-30 03:50:00,
2013-08-29 23:55:00,77.8,73.0,29.93,NE,53,19.0,26.0,85,0.00,,,0.72,WUHU216DAVISVP2,2013-08-30 03:55:00,